Flag for Poland Weather past 2 weeks in Ruda Śląska, Poland

Now
48 °F

Light rain. Passing clouds.


Feels Like: 43 °F
Forecast: 39 / 47 °F
Wind: 13 mph from Southwest

Location: Katowice Airport

Current Time: Dec 19, 2014 at 10:50:53 PM

Latest Report: Dec 19, 2014 at 10:00 PM


Visibility: N/A

Pressure: 29.80 "Hg

Humidity: 87%

Dew point: 45 °F

Location of Ruda ŚląskaLocation

Historic Weather in Ruda Śląska — Graph

°F

Ruda Śląska temperature yesterday

Maximum temperature yesterday: 46 °F (at 10:30 PM)
Minimum temperature yesterday: 37 °F (at 12:00 AM)
Average temperature yesterday: 42 °F

Past Weeks' High & Low Weather Summary

 TemperatureHumidityPressure
High52 °F (Dec 19, 11:30 AM)100% (Dec 4, 11:30 PM)30.39 "Hg (Dec 4, 11:30 PM)
Low16 °F (Dec 10, 7:00 AM)46% (Dec 12, 8:00 PM)29.71 "Hg (Dec 12, 5:30 PM)
Average38 °F86%29.99 "Hg
* Reported Dec 4 9:00 PM — Dec 19 9:30 PM, Ruda Śląska, Weather by CustomWeather, © 2014

Note: Actual official high and low records may vary slightly from our data, if they occured in-between our weather recording intervals... More about our weather records

Advertising

Ruda Śląska weather history for previous 24 hours

 ConditionsComfort  
Time TempWeatherWind HumidityBarometerVisibility
9:30 PM
Dec 19
48 °FLight rain. Passing clouds.14 mph87%29.80 "HgN/A
9:00 PM48 °FSprinkles. Passing clouds.13 mph87%29.80 "HgN/A
8:30 PM48 °FSprinkles. Passing clouds.15 mph87%29.80 "HgN/A
8:00 PM48 °FLight rain. Passing clouds.14 mph87%29.80 "HgN/A
7:30 PM50 °FSprinkles. Passing clouds.15 mph82%29.80 "HgN/A
7:00 PM50 °FSprinkles. Partly cloudy.15 mph82%29.80 "HgN/A
6:30 PM50 °FSprinkles. Partly cloudy.15 mph82%29.80 "HgN/A
6:00 PM52 °FSprinkles. Passing clouds.15 mph77%29.80 "HgN/A
5:30 PM52 °FLight rain. Passing clouds.15 mph77%29.80 "HgN/A
5:00 PM52 °FPassing clouds.15 mph77%29.80 "HgN/A
4:30 PM52 °FPassing clouds.14 mph77%29.80 "HgN/A
4:00 PM52 °FPassing clouds.16 mph77%29.83 "HgN/A
3:30 PM52 °FPartly sunny.13 mph77%29.83 "HgN/A
3:00 PM52 °FPartly sunny.15 mph77%29.83 "HgN/A
2:30 PM52 °FPartly sunny.15 mph77%29.83 "HgN/A
2:00 PM52 °FPartly sunny.16 mph82%29.83 "HgN/A
1:30 PM52 °FBroken clouds.18 mph82%29.83 "HgN/A
1:00 PM52 °FBroken clouds.15 mph88%29.83 "HgN/A
12:30 PM52 °FLight rain. Broken clouds.10 mph88%29.83 "HgN/A
12:00 PM52 °FBroken clouds.13 mph88%29.86 "Hg5 mi
11:30 AM52 °FLight rain. Broken clouds.14 mph88%29.86 "Hg5 mi
11:00 AM50 °FLight rain. Fog.13 mph94%29.86 "Hg2 mi
10:30 AM50 °FFog.12 mph94%29.86 "Hg3 mi
10:00 AM50 °FPartly sunny.13 mph94%29.86 "Hg4 mi
9:30 AM50 °FPartly sunny.10 mph94%29.86 "Hg4 mi
9:00 AM50 °FPartly sunny.13 mph94%29.86 "Hg4 mi
8:30 AM48 °FFog.12 mph100%29.86 "Hg3 mi
8:00 AM48 °FLight rain. Fog.9 mph100%29.86 "Hg3 mi
7:30 AM48 °FLight rain. Fog.12 mph100%29.86 "Hg1 mi
7:00 AM48 °FDrizzle. Fog.13 mph100%29.86 "Hg2 mi
6:30 AM48 °FDrizzle. Fog.13 mph94%29.83 "Hg2 mi
6:00 AM48 °FDrizzle. Fog.14 mph94%29.83 "Hg2 mi
5:30 AM48 °FDrizzle. Fog.14 mph94%29.83 "Hg2 mi
5:00 AM48 °FDrizzle. Fog.14 mph94%29.83 "Hg2 mi
4:30 AM46 °FDrizzle. Fog.14 mph100%29.83 "Hg2 mi
4:00 AM46 °FDrizzle. Fog.14 mph100%29.83 "Hg2 mi
3:30 AM46 °FDrizzle. Fog.15 mph100%29.83 "Hg2 mi
3:00 AM46 °FDrizzle. Fog.14 mph93%29.83 "Hg2 mi
2:30 AM46 °FLight rain. Passing clouds.14 mph93%29.83 "Hg4 mi
2:00 AM46 °FLight rain. Partly cloudy.15 mph93%29.83 "Hg4 mi
1:30 AM46 °FPassing clouds.15 mph93%29.83 "Hg4 mi
1:00 AM46 °FLight rain. Partly cloudy.14 mph93%29.83 "Hg5 mi
12:30 AM46 °FLight rain. Passing clouds.16 mph93%29.86 "HgN/A
12:00 AM46 °FLight rain. Passing clouds.16 mph87%29.86 "HgN/A
11:30 PM
Dec 18
46 °FPassing clouds.16 mph87%29.86 "HgN/A
11:00 PM46 °FPassing clouds.14 mph87%29.86 "HgN/A
10:30 PM46 °FClear.13 mph82%29.86 "Hg10 mi
10:00 PM45 °FClear.12 mph87%29.86 "Hg10 mi
Weather by CustomWeather, © 2014

See weather overviewHow to use our weather pages